Theta_e
323 323 328 335 340 343 343 343 342 343 342 343 342 342 342 341 341 340 338 338 336 334 330 331 331 328 328 328 328 332 337 338
323 323 327 336 340 343 343 343 343 343 343 343 342 342 342 342 341 340 340 338 337 335 331 332 332 329 329 329 329 333 337 338
325 324 330 338 341 343 343 343 343 344 343 343 342 341 341 341 339 339 341 340 338 336 333 333 332 330 331 334 332 330 336 339
322 325 328 339 341 343 344 343 343 343 343 343 342 341 341 339 337 339 341 342 340 337 335 333 333 332 333 336 337 331 333 338
322 323 326 336 341 343 344 344 343 343 342 341 341 341 340 338 338 338 340 342 341 339 336 335 334 334 334 337 337 333 333 338
322 322 323 326 339 342 344 344 343 342 342 341 341 340 339 338 337 338 338 341 341 340 338 336 335 335 336 337 337 338 337 337
321 322 321 322 330 341 343 344 344 343 342 342 341 340 339 338 339 339 339 340 341 341 339 338 337 336 336 337 339 339 338 338
319 321 322 322 323 335 343 343 343 344 343 342 342 341 341 340 339 339 339 340 342 342 341 340 339 338 336 337 338 339 339 339
319 320 322 322 323 324 342 342 342 343 345 344 343 343 342 341 339 339 340 341 340 341 341 341 339 338 337 337 338 339 339 341
319 320 321 321 322 324 340 343 341 342 344 345 344 343 342 341 339 339 340 340 340 340 340 341 340 339 338 338 338 338 339 340
319 320 320 320 322 321 330 344 342 343 345 344 344 343 342 342 341 340 339 340 340 339 340 340 340 340 339 338 338 338 338 339
322 321 320 320 321 322 325 342 341 343 345 344 343 343 343 343 342 341 341 341 341 340 340 340 340 340 339 339 339 338 339 339
321 322 321 322 321 322 322 328 342 343 344 344 343 343 344 344 344 343 342 342 342 343 342 342 342 341 340 340 340 339 339 340
319 319 319 318 321 325 321 322 327 338 341 343 344 344 344 344 344 344 345 345 344 344 344 343 343 343 342 341 341 341 340 341
317 318 318 318 318 320 323 327 324 327 335 341 344 345 345 345 345 344 345 345 346 345 345 344 344 344 344 343 342 341 340 341
316 316 317 317 319 320 324 326 330 329 327 334 343 345 344 344 344 345 345 345 346 345 345 345 344 344 343 343 342 340 340 339
308 315 315 315 313 314 315 316 322 326 330 326 335 340 342 343 343 344 345 345 345 345 345 344 343 343 342 341 341 339 339 338
306 309 313 312 311 312 311 313 318 322 325 329 328 331 340 342 343 343 344 344 345 345 344 343 342 341 340 340 339 339 339 337
305 306 306 307 308 310 310 309 311 313 316 320 325 329 327 336 341 343 343 344 344 344 343 341 340 340 339 338 338 337 338 335
Wind_Speed
25 29 30 28 32 37 39 39 38 37 34 31 30 29 29 28 28 27 27 29 27 25 23 21 21 20 20 19 18 18 18 17
23 25 28 28 31 37 40 41 40 39 36 36 35 35 32 31 30 28 28 29 30 28 25 24 23 23 22 21 20 19 18 18
16 21 24 29 32 38 40 42 41 42 39 39 37 34 33 30 28 30 29 30 31 31 30 27 26 25 23 23 24 22 22 22
22 18 22 27 31 35 38 41 42 43 40 35 33 29 25 27 30 33 34 32 33 34 32 29 28 27 26 26 26 26 26 24
25 22 18 27 30 31 37 38 39 40 40 37 37 36 33 35 33 31 34 34 34 35 34 33 30 30 28 28 27 28 27 26
26 24 27 22 28 31 33 37 39 38 41 39 38 36 34 30 29 31 35 34 37 37 37 36 34 33 32 30 30 31 30 27
29 26 29 30 26 30 32 35 38 40 41 42 40 39 33 31 31 31 33 36 37 39 39 38 38 36 34 34 31 31 31 30
26 28 23 27 30 32 33 35 38 40 42 43 42 40 39 35 33 33 32 34 35 40 41 40 39 39 36 34 34 33 34 32
26 26 24 28 28 30 34 35 36 38 41 43 42 40 37 38 37 33 35 35 38 36 43 40 40 38 37 35 34 35 33 35
22 25 23 29 31 29 32 37 37 38 42 41 41 40 40 38 39 38 35 35 34 35 38 42 41 41 40 38 37 35 34 34
20 21 24 27 30 33 32 37 37 40 42 41 41 43 43 41 36 36 38 38 35 33 36 40 41 41 41 41 39 37 36 35
20 20 21 27 30 29 28 32 37 36 38 41 40 41 41 39 39 40 40 38 35 36 36 37 38 40 40 41 40 36 38 36
12 2 7 13 20 24 28 30 33 35 39 40 41 41 37 39 40 40 38 38 37 37 36 35 35 36 37 41 40 39 39 38
8 5 5 4 3 10 17 24 30 34 35 34 36 35 35 38 41 40 37 37 38 37 36 37 38 38 38 40 39 38 37 38
8 8 8 5 4 3 2 8 14 23 30 33 33 34 38 39 38 36 37 38 36 37 38 38 37 36 37 38 38 35 37 35
12 11 12 10 10 10 8 3 2 9 17 27 31 33 33 34 34 34 35 36 37 36 35 36 36 36 37 38 37 40 37 33
18 13 12 14 15 15 14 14 11 5 6 18 23 28 30 32 33 32 32 34 35 34 35 35 35 35 39 42 37 37 36 36
17 18 16 16 19 19 21 19 18 15 9 4 12 17 26 28 29 29 32 33 32 34 33 34 34 36 37 41 44 38 36 38
8 12 19 26 23 19 20 22 23 23 20 15 11 8 19 23 26 30 31 31 32 32 31 31 31 31 35 40 44 44 34 36
Wind_Direction
244 233 226 221 210 205 201 197 197 198 197 199 202 204 204 204 203 201 200 197 197 197 200 197 197 197 196 195 194 191 190 185
247 239 225 215 207 203 201 196 196 194 195 197 201 204 206 207 208 205 202 201 199 200 201 200 199 203 202 197 193 191 194 192
246 240 220 209 205 204 202 200 195 194 198 201 203 204 209 211 206 209 206 206 204 200 202 202 201 203 203 201 197 195 198 194
244 238 228 212 209 203 204 202 198 196 200 201 205 207 208 208 209 212 213 211 208 205 204 204 201 201 205 203 201 198 198 199
251 243 221 213 213 207 208 206 202 199 198 199 201 201 203 210 213 216 216 215 212 210 206 205 204 203 205 204 204 203 203 200
247 241 237 225 210 212 209 206 206 202 198 202 201 207 211 212 214 214 214 215 215 211 209 204 207 205 206 205 203 205 207 208
248 247 243 235 216 210 210 209 205 205 202 203 202 205 207 207 208 208 209 212 212 213 211 207 207 208 207 207 207 207 210 214
245 242 242 231 227 206 209 208 208 205 204 202 205 206 204 207 205 205 206 207 209 211 209 210 208 210 211 210 210 211 211 215
253 242 239 238 229 227 206 209 212 207 206 206 206 207 206 209 209 209 209 209 211 210 208 211 214 212 212 211 212 215 213 216
249 252 237 239 233 220 207 210 212 209 207 205 208 208 209 212 213 211 212 215 215 212 210 210 211 210 210 209 212 214 214 216
255 251 251 235 233 226 221 209 211 208 204 204 206 208 210 213 212 212 214 217 216 214 211 211 211 211 211 209 213 214 213 214
278 247 250 244 236 231 224 210 213 209 202 204 207 209 212 213 214 214 216 217 216 215 214 212 211 210 210 212 214 214 215 214
302 264 304 267 248 236 225 223 214 210 206 203 207 210 209 213 218 219 218 218 216 216 215 216 216 214 211 212 213 212 214 213
351 35 34 49 295 251 235 227 227 221 214 209 213 213 210 215 219 220 219 220 219 218 218 217 215 211 210 213 214 212 214 214
10 27 26 35 51 325 253 214 236 234 224 216 216 215 210 212 217 219 218 218 220 219 217 218 218 217 214 214 213 211 214 217
11 24 37 31 35 32 20 22 255 233 231 224 219 220 219 218 216 216 219 218 220 222 219 218 218 218 216 214 210 210 212 212
352 353 24 26 30 31 27 16 8 348 249 236 233 224 224 221 222 220 218 220 221 222 222 218 215 216 217 214 209 209 210 210
356 353 357 15 18 32 34 22 24 28 19 289 245 246 230 223 221 222 223 221 220 222 220 219 216 217 219 219 212 211 211 212
21 10 4 353 358 16 30 26 27 30 24 15 8 287 249 237 225 220 222 222 219 218 217 217 215 218 219 218 217 214 214 212